Voltar ao catálogo

NOAA 16 DEB

AtivoSSO
NORAD 41199·DEBRIS·🇺🇸 United States

Lançado Sep 21, 2000 de Vandenberg Space Force Base

Loading…

Próximas Passagens (próximas 24 horas)

TLE

AtualizadoSource: Space-Track

Época: Sep 12, 2026, 06:11 UTC

1 41199U 00055DC  26255.25800701  .00002080  00000-0  10966-2 0  9991
2 41199  98.7407 268.6767 0060654  81.2330 279.5706 14.14055397551478

Acompanhe NOAA 16 DEB em tempo real com AllMySat

Download on the App Store